TimePDT,TemperatureF,Dew PointF,Humidity,Sea Level PressureIn,VisibilityMPH,Wind Direction,Wind SpeedMPH,Gust SpeedMPH,PrecipitationIn,Events,Conditions,WindDirDegrees,DateUTC
12:53 AM,46.0,45.0,96,30.18,10.0,Calm,Calm,-,N/A,,Clear,0,2013-03-29 07:53:00
1:53 AM,46.0,44.1,93,30.18,10.0,South,3.5,-,N/A,,Scattered Clouds,180,2013-03-29 08:53:00
2:53 AM,46.0,43.0,89,30.19,10.0,Calm,Calm,-,N/A,,Mostly Cloudy,0,2013-03-29 09:53:00
3:53 AM,45.0,43.0,93,30.21,10.0,Calm,Calm,-,N/A,,Overcast,0,2013-03-29 10:53:00
4:53 AM,45.0,43.0,93,30.21,10.0,SSE,3.5,-,N/A,,Overcast,150,2013-03-29 11:53:00
5:53 AM,46.0,43.0,89,30.22,10.0,Calm,Calm,-,N/A,,Overcast,0,2013-03-29 12:53:00
6:53 AM,45.0,42.1,90,30.24,10.0,Calm,Calm,-,N/A,,Overcast,0,2013-03-29 13:53:00
7:53 AM,46.9,43.0,86,30.25,10.0,Calm,Calm,-,N/A,,Overcast,0,2013-03-29 14:53:00
8:53 AM,48.0,45.0,89,30.26,10.0,Calm,Calm,-,0.00,,Mostly Cloudy,0,2013-03-29 15:53:00
9:53 AM,50.0,46.9,89,30.26,10.0,NW,5.8,-,N/A,,Clear,320,2013-03-29 16:53:00
10:53 AM,53.1,46.0,77,30.27,10.0,North,5.8,-,N/A,,Overcast,350,2013-03-29 17:53:00
11:53 AM,55.9,46.0,69,30.27,10.0,NNW,4.6,-,N/A,,Clear,330,2013-03-29 18:53:00
12:53 PM,57.9,46.0,65,30.25,10.0,NW,6.9,-,N/A,,Clear,320,2013-03-29 19:53:00
1:53 PM,60.1,48.0,64,30.25,10.0,NNW,5.8,-,N/A,,Clear,330,2013-03-29 20:53:00
2:53 PM,62.1,45.0,53,30.24,10.0,NW,6.9,-,N/A,,Clear,320,2013-03-29 21:53:00
3:53 PM,63.0,42.1,46,30.22,10.0,NW,5.8,-,N/A,,Clear,310,2013-03-29 22:53:00
4:53 PM,63.0,42.1,46,30.22,10.0,NW,5.8,-,N/A,,Clear,320,2013-03-29 23:53:00
5:53 PM,63.0,43.0,48,30.21,10.0,NW,8.1,-,N/A,,Clear,310,2013-03-30 00:53:00
6:53 PM,60.1,44.1,55,30.21,10.0,NW,8.1,-,N/A,,Clear,320,2013-03-30 01:53:00
7:53 PM,57.0,46.0,67,30.22,10.0,WNW,6.9,-,N/A,,Clear,300,2013-03-30 02:53:00
8:53 PM,55.0,46.0,72,30.24,10.0,NW,6.9,-,N/A,,Clear,320,2013-03-30 03:53:00
9:53 PM,53.1,46.0,77,30.25,10.0,NNW,6.9,-,N/A,,Clear,330,2013-03-30 04:53:00
10:53 PM,51.1,46.0,83,30.26,10.0,NNW,3.5,-,N/A,,Clear,340,2013-03-30 05:53:00
11:53 PM,51.1,45.0,80,30.26,10.0,NW,4.6,-,N/A,,Clear,320,2013-03-30 06:53:00